Location: La Coruña
(43.3623°N, 8.4115°W)
Time: 05:37:41
(UTC+02:00)

Falcon 9 debris - Visible Passes

Search period start: 08 August 2020 00:00
Search period end: 18 August 2020 00:00
Orbit: 428 x 432 km, 53.0° (Epoch: 07 August)

Date Brightness Start Highest point End Pass type
(mag) Time Alt. Az. Time Alt. Az. Time Alt. Az.
08 Aug ? 00:16:39 10° WSW 00:20:01 51° NNW 00:21:22 31° NNE visible
08 Aug?02:02:09NE02:02:09NE01:54:47WNWvisible
08 Aug ? 03:35:31 18° NNE 03:35:31 18° NNE 03:37:58 10° ENE visible
08 Aug ? 05:09:37 10° NW 05:13:01 50° NNE 05:16:22 10° ESE visible
08 Aug ? 06:46:59 10° W 06:49:44 22° SW 06:52:27 10° S visible
08 Aug ? 23:32:45 10° WSW 23:36:11 77° NW 23:39:39 10° NE visible
09 Aug ? 01:10:50 10° WNW 01:13:34 21° NNW 01:14:41 18° NNE visible
09 Aug ? 04:30:55 21° E 04:30:55 21° E 04:32:20 10° E visible
09 Aug ? 06:04:26 22° W 06:06:02 34° SW 06:09:11 10° SSE visible
09 Aug ? 22:48:58 10° SW 22:52:23 70° SE 22:55:49 10° ENE visible
10 Aug ? 00:26:39 10° WNW 00:29:35 25° NNW 00:32:31 10° NE visible
10 Aug ? 02:05:07 10° NW 02:06:08 14° NNW 02:06:08 14° NNW visible
10 Aug ? 23:42:30 10° W 23:45:38 31° NNW 23:48:47 10° NE visible
11 Aug ? 01:21:03 10° NW 01:23:22 17° N 01:23:54 16° N visible
11 Aug ? 22:58:25 10° W 23:01:43 42° NNW 23:05:02 10° NE visible
12 Aug ? 00:36:55 10° NW 00:39:20 18° N 00:41:31 11° NNE visible
12 Aug ? 02:14:36 10° NW 02:14:41 10° NW 02:14:41 10° NW visible
12 Aug ? 22:14:25 10° WSW 22:17:50 60° NNW 22:21:16 10° NE visible
12 Aug ? 23:52:42 10° WNW 23:55:18 19° NNW 23:57:54 10° NE visible
13 Aug ? 01:30:46 10° NW 01:32:14 16° NNW 01:32:14 16° NNW visible
13 Aug ? 23:08:30 10° WNW 23:11:18 22° NNW 23:14:06 10° NE visible
14 Aug ? 00:46:50 10° NW 00:49:09 17° N 00:49:46 16° NNE visible
14 Aug ? 22:24:18 10° W 22:27:18 27° NNW 22:30:20 10° NE visible
15 Aug ? 00:02:49 10° NW 00:05:06 16° N 00:07:16 10° NE visible
15 Aug ? 01:39:57 10° NW 01:40:26 13° NW 01:40:26 13° NW visible
15 Aug ? 23:18:42 10° NW 23:21:02 17° N 23:23:23 10° NE visible
16 Aug ? 00:56:11 10° NW 00:57:57 19° N 00:57:57 19° N visible
16 Aug ? 22:34:30 10° NW 22:36:59 18° N 22:39:29 10° NE visible
17 Aug ? 00:12:21 10° NW 00:14:53 19° N 00:15:28 18° NNE visible
17 Aug ? 23:28:27 10° NW 23:30:50 17° N 23:32:58 11° NE visible
